Terug naar catalogus

SITRO-AIS-26

ActiefCommunicatiePO
NORAD 59067·PAYLOAD·🇷🇺 Russia
Deze satellietnaam is nog niet bevestigd door officiële bronnen.

Gelanceerd Feb 29, 2024 vanaf Vostochny Cosmodrome

Loading…

Volgende Passages (komende 24 uur)

TLE

VersSource: Space-Track

Epoch: Sep 14, 2026, 13:15 UTC

1 59067U 24039S   26257.55263501  .00002428  00000-0  18893-3 0  9992
2 59067  95.3817 296.3561 0144281  16.9266 343.6700 14.93815558138053

Volg SITRO-AIS-26 in realtime met AllMySat

Download on the App Store